Location: Unspecified
(0.0000°N, 0.0000°E)
Time: 08:38:09
(UTC+00:00)

Vanguard 2 - Pass Details

Date: 24 October 2021
Orbit: 554 x 2936 km, 32.9° (Epoch: 06 December)

Event Time Altitude Azimuth Distance (km) Brightness Sun altitude
Rises 21:05:16 0° 233° (SW) 6,392 12.8 -48.8°
Reaches altitude 10° 21:09:14 10° 232° (SW) 5,549 12.3 -49.7°
Enters shadow 21:23:41 67° 218° (SW) 3,087 10.3 -53.1°
Maximum altitude 21:27:08 84° 144° (SE) 2,898 - -53.9°
Drops below altitude 10° 21:42:53 10° 57° (ENE) 4,972 - -57.6°
Sets 21:46:12 0° 56° (ENE) 5,728 - -58.4°
